Location: Larch Mountain
(45.5297°N, 122.0872°W)
Time: 13:38:00
(UTC-07:00)

ISS - All Passes

Search period start: 01 July 2016 00:00
Search period end: 11 July 2016 00:00
Orbit: 402 x 404 km, 51.6° (Epoch: 02 July)

Date Brightness Start Highest point End Pass type
(mag) Time Alt. Az. Time Alt. Az. Time Alt. Az.
01 Jul - 07:39:49 10° S 07:42:10 19° SE 07:44:33 10° E daylight
01 Jul - 09:15:04 10° WSW 09:18:19 72° NNW 09:21:35 10° ENE daylight
01 Jul - 10:52:14 10° WNW 10:55:08 28° N 10:58:02 10° NE daylight
01 Jul - 12:29:08 10° NW 12:32:09 33° NNE 12:35:10 10° E daylight
01 Jul - 14:05:32 10° WNW 14:08:48 68° SSW 14:12:02 10° SE daylight
01 Jul - 15:44:15 10° WSW 15:44:41 10° SW 15:45:07 10° SW daylight
02 Jul - 06:49:05 10° SE 06:49:40 10° SE 06:50:13 10° ESE daylight
02 Jul - 08:22:18 10° SW 08:25:32 69° SSE 08:28:48 10° ENE daylight
02 Jul - 09:59:11 10° W 10:02:11 33° NNW 10:05:12 10° NE daylight
02 Jul - 11:36:19 10° NW 11:39:13 28° N 11:42:07 10° ENE daylight
02 Jul - 13:12:45 10° WNW 13:16:02 73° NNE 13:19:17 10° ESE daylight
02 Jul - 14:49:49 10° W 14:52:10 18° SW 14:54:30 10° S daylight
03 Jul - 07:29:47 10° SSW 07:32:51 38° SE 07:35:55 10° ENE daylight
03 Jul - 09:06:09 10° W 09:09:17 42° NNW 09:12:25 10° NE daylight
03 Jul - 10:43:24 10° WNW 10:46:15 26° N 10:49:06 10° ENE daylight
03 Jul - 12:20:00 10° NW 12:23:11 47° NNE 12:26:22 10° E daylight
03 Jul - 13:56:35 10° WNW 13:59:33 32° SW 14:02:30 10° SSE daylight
04 Jul - 06:37:37 10° S 06:40:13 22° SE 06:42:48 10° E daylight
04 Jul - 08:13:10 10° WSW 08:16:25 62° NNW 08:19:40 10° ENE daylight
04 Jul - 09:50:24 10° WNW 09:53:16 27° N 09:56:09 10° NE daylight
04 Jul - 11:27:13 10° NW 11:30:17 35° NNE 11:33:20 10° E daylight
04 Jul - 13:03:38 10° WNW 13:06:52 57° SSW 13:10:04 10° SE daylight
05 Jul - 05:46:10 10° SSE 05:47:38 12° SE 05:49:05 10° ESE daylight
05 Jul - 07:20:20 10° WSW 07:23:35 81° SSE 07:26:52 10° ENE daylight
05 Jul - 08:57:19 10° WNW 09:00:17 31° NNW 09:03:16 10° NE daylight
05 Jul - 10:34:23 10° NW 10:37:19 29° N 10:40:14 10° ENE daylight
05 Jul - 12:10:48 10° WNW 12:14:04 83° NNE 12:17:21 10° ESE daylight
05 Jul - 13:48:05 10° W 13:50:08 16° SW 13:52:10 10° S daylight
06 Jul - 06:27:42 10° SW 06:30:50 45° SE 06:33:58 10° ENE daylight
06 Jul - 08:04:14 10° W 08:07:19 39° NNW 08:10:26 10° NE daylight
06 Jul - 09:41:28 10° WNW 09:44:19 27° N 09:47:10 10° ENE daylight
06 Jul - 11:17:59 10° NW 11:21:13 53° NNE 11:24:25 10° ESE daylight
06 Jul - 12:54:41 10° W 12:57:31 27° SW 13:00:20 10° SSE daylight
07 Jul - 05:35:22 10° SSW 05:38:07 26° SE 05:40:54 10° E daylight
07 Jul - 07:11:11 10° WSW 07:14:24 55° NNW 07:17:38 10° ENE daylight
07 Jul - 08:48:26 10° WNW 08:51:17 27° N 08:54:09 10° ENE daylight
07 Jul - 10:25:11 10° NW 10:28:17 38° NNE 10:31:22 10° E daylight
07 Jul - 12:01:37 10° WNW 12:04:48 48° SW 12:07:57 10° SE daylight
08 Jul - 04:43:35 10° S 04:45:29 15° SE 04:47:25 10° E visible
08 Jul - 06:18:15 10° WSW 06:21:31 87° NNW 06:24:48 10° ENE daylight
08 Jul - 07:55:20 10° WNW 07:58:15 29° N 08:01:12 10° NE daylight
08 Jul - 09:32:20 10° NW 09:35:17 30° N 09:38:15 10° ENE daylight
08 Jul - 11:08:43 10° WNW 11:12:00 85° SSW 11:15:16 10° ESE daylight
08 Jul - 12:46:21 10° WSW 12:48:00 13° SW 12:49:37 10° SSW daylight
09 Jul - 05:25:30 10° SW 05:28:42 54° SE 05:31:55 10° ENE daylight
09 Jul - 07:02:11 10° W 07:05:15 36° NNW 07:08:19 10° NE daylight
09 Jul - 08:39:24 10° WNW 08:42:15 27° N 08:45:07 10° ENE daylight
09 Jul - 10:15:52 10° WNW 10:19:07 60° NNE 10:22:21 10° ESE daylight
09 Jul - 11:52:41 10° W 11:55:21 23° SW 11:58:00 10° SSE daylight
10 Jul - 04:33:02 10° SSW 04:35:56 30° SE 04:38:51 10° ENE visible
10 Jul - 06:09:05 10° W 06:12:17 49° NNW 06:15:28 10° NE daylight
10 Jul - 07:46:22 10° WNW 07:49:12 26° N 07:52:03 10° ENE daylight
10 Jul - 09:23:02 10° NW 09:26:10 41° NNE 09:29:17 10° E daylight
10 Jul - 10:59:31 10° WNW 11:02:37 41° SW 11:05:43 10° SE daylight
